2023/02/05 00:00:00,61.2, 1.1
2023/02/05 00:10:00,61.2, 0.9
2023/02/05 00:20:00,61.1, 0.9
2023/02/05 00:30:00,61.1, 1.1
2023/02/05 00:40:00,61.2, 0.9
2023/02/05 00:50:00,61.2, 1.3
2023/02/05 01:00:00,61.0, 1.0
2023/02/05 01:10:00,61.0, 1.0
2023/02/05 01:20:00,60.9, 0.9
2023/02/05 01:30:00,60.9, 0.6
2023/02/05 01:40:00,60.9, 0.5
2023/02/05 01:50:00,60.8, 0.3
2023/02/05 02:00:00,60.9, 0.4
2023/02/05 02:10:00,60.8, 0.6
2023/02/05 02:20:00,60.9, 0.5
2023/02/05 02:30:00,60.7, 0.5
2023/02/05 02:40:00,60.7, 0.6
2023/02/05 02:50:00,60.6, 0.7
2023/02/05 03:00:00,60.6, 0.5
2023/02/05 03:10:00,60.6, 0.4
2023/02/05 03:20:00,60.6, 0.5
2023/02/05 03:30:00,60.6, 0.2
2023/02/05 03:40:00,60.7, 0.5
2023/02/05 03:50:00,60.7, 0.6
2023/02/05 04:00:00,60.7, 0.6
2023/02/05 04:10:00,60.7, 0.6
2023/02/05 04:20:00,60.7, 0.9
2023/02/05 04:30:00,60.7, 0.8
2023/02/05 04:40:00,60.7, 0.7
2023/02/05 04:50:00,60.7, 0.6
2023/02/05 05:00:00,60.6, 0.6
2023/02/05 05:10:00,60.5, 0.4
2023/02/05 05:20:00,60.6, 0.4
2023/02/05 05:30:00,60.5, 0.2
2023/02/05 05:40:00,60.5, 0.1
2023/02/05 05:50:00,60.5, 0.0
2023/02/05 06:00:00,60.4, 0.1
2023/02/05 06:10:00,60.4, 0.2
2023/02/05 06:20:00,60.4, 0.3
2023/02/05 06:30:00,60.4, 0.3
2023/02/05 06:40:00,60.3, 0.3
2023/02/05 06:50:00,60.3, 0.4
2023/02/05 07:00:00,60.3, 0.5
2023/02/05 07:10:00,60.3, 0.7
2023/02/05 07:20:00,60.3, 0.7
2023/02/05 07:30:00,60.3, 0.9
2023/02/05 07:40:00,60.3, 1.0
2023/02/05 07:50:00,60.3, 1.3
2023/02/05 08:00:00,60.3, 1.4
2023/02/05 08:10:00,60.2, 1.6
2023/02/05 08:20:00,60.2, 1.5
2023/02/05 08:30:00,60.2, 1.9
2023/02/05 08:40:00,60.2, 2.3
2023/02/05 08:50:00,60.3, 2.4
2023/02/05 09:00:00,60.2, 2.8
2023/02/05 09:10:00,60.1, 2.7
2023/02/05 09:20:00,60.1, 2.8
2023/02/05 09:30:00,60.1, 2.8
2023/02/05 09:40:00,60.1, 3.4
2023/02/05 09:50:00,60.1, 3.8
2023/02/05 10:00:00,60.2, 4.4
2023/02/05 10:10:00,60.2, 5.0
2023/02/05 10:20:00,60.1, 5.6
2023/02/05 10:30:00,60.4, 6.3
2023/02/05 10:40:00,60.1, 6.1
2023/02/05 10:50:00,60.5, 7.3
2023/02/05 11:00:00,60.7, 7.4
2023/02/05 11:10:00,60.1, 7.0
2023/02/05 11:20:00,59.9, 7.0
2023/02/05 11:30:00,60.1, 7.0
2023/02/05 11:40:00,60.5, 8.3
2023/02/05 11:50:00,60.4,11.8
2023/02/05 12:00:00,60.0, 8.9
2023/02/05 12:10:00,60.4,13.1
2023/02/05 12:20:00,85.3,14.6
2023/02/05 12:30:00,118.1,14.8
2023/02/05 12:40:00,59.7, 9.5
2023/02/05 12:50:00,60.2,13.2
2023/02/05 13:00:00,59.4,10.0
2023/02/05 13:10:00,59.6, 9.9
2023/02/05 13:20:00,60.1,12.6
2023/02/05 13:30:00,84.6,13.8
2023/02/05 13:40:00,59.7,13.1
2023/02/05 13:50:00,---,13.5
2023/02/05 14:00:00,100.2,14.2
2023/02/05 14:10:00,---,14.2
2023/02/05 14:20:00,59.2,14.7
2023/02/05 14:30:00,58.8,14.7
2023/02/05 14:40:00,58.3,15.5
2023/02/05 14:50:00,57.1,14.2
2023/02/05 15:00:00,57.1,13.9
2023/02/05 15:10:00,57.2,14.4
2023/02/05 15:20:00,56.9,13.1
2023/02/05 15:30:00,56.6,12.9
2023/02/05 15:40:00,56.1,12.1
2023/02/05 15:50:00,56.1,11.5
2023/02/05 16:00:00,56.4,11.6
2023/02/05 16:10:00,56.2,10.6
2023/02/05 16:20:00,55.9, 8.2
2023/02/05 16:30:00,55.8, 5.1
2023/02/05 16:40:00,55.6, 4.5
2023/02/05 16:50:00,55.8, 4.0
2023/02/05 17:00:00,55.9, 3.7
2023/02/05 17:10:00,55.9, 3.4
2023/02/05 17:20:00,55.9, 2.2
2023/02/05 17:30:00,55.8, 2.3
2023/02/05 17:40:00,55.8, 1.8
2023/02/05 17:50:00,55.8, 1.7
2023/02/05 18:00:00,55.8, 1.4
2023/02/05 18:10:00,55.8, 1.1
2023/02/05 18:20:00,55.8, 1.0
2023/02/05 18:30:00,55.7, 0.8
2023/02/05 18:40:00,55.7, 0.6
2023/02/05 18:50:00,55.6, 0.3
2023/02/05 19:00:00,55.6, 0.3
2023/02/05 19:10:00,55.5, 0.1
2023/02/05 19:20:00,55.5, 0.0
2023/02/05 19:30:00,55.6, 0.1
2023/02/05 19:40:00,55.6,-0.1
2023/02/05 19:50:00,55.6,-0.4
2023/02/05 20:00:00,55.6,-0.2
2023/02/05 20:10:00,55.6,-0.2
2023/02/05 20:20:00,55.5,-0.3
2023/02/05 20:30:00,55.5,-0.3
2023/02/05 20:40:00,55.5,-0.3
2023/02/05 20:50:00,55.5,-0.4
2023/02/05 21:00:00,55.4,-0.5
2023/02/05 21:10:00,55.4,-0.5
2023/02/05 21:20:00,55.4,-0.4
2023/02/05 21:30:00,55.5,-0.4
2023/02/05 21:40:00,55.5,-0.7
2023/02/05 21:50:00,55.5,-0.5
2023/02/05 22:00:00,55.4,-0.5
2023/02/05 22:10:00,55.4,-0.8
2023/02/05 22:20:00,55.4,-0.4
2023/02/05 22:30:00,55.4,-0.6
2023/02/05 22:40:00,55.4,-0.7
2023/02/05 22:50:00,55.4,-0.7
2023/02/05 23:00:00,55.4,-0.7
2023/02/05 23:10:00,55.3,-0.7
2023/02/05 23:20:00,55.3,-0.5
2023/02/05 23:30:00,55.3,-0.7
2023/02/05 23:40:00,55.3,-1.0
2023/02/05 23:50:00,55.3,-1.0
